Tracking 31027 objects as of 19-Jul-2025
HD Live streaming from Space Station
objects crossing your sky now

SECOR 8 (EGRS 8)

Track SECOR 8 (EGRS 8) now!
10-day predictions
SECOR 8 (EGRS 8) is classified as:


NORAD ID: 2520
Int'l Code: 1966-089B
Perigee: 3,686.5 km
Apogee: 3,715.2 km
Inclination: 89.8 °
Period: 167.7 minutes
Semi major axis: 10071 km
RCS: 0.3272 m2 (medium)
Launch date: October 5, 1966
Source: United States (US)
Launch site: AIR FORCE WESTERN TEST RANGE (AFWTR)
Your satellite tracking list
COSMOS 1743
Track 1 satellite(s)




NASA's NSSDC Master Catalog

Two Line Element Set (TLE):
1 02520U 66089B   25199.49776143  .00000000  00000-0 -98808-3 0  9992
2 02520  89.8210  33.4260 0014222 282.6056  77.3205  8.58894619353303
Source of the keplerian elements: AFSPC